QPF
0.02 0.03 0.03 0.01 0.00 0.01 0.04 0.01 0.01 0.02 0.01 0.02 0.00 0.00 0.00 0.00 0.00 0.00 0.00 0.00 0.00 0.00 0.00 0.00 0.00 0.00 0.00 0.00 0.00 0.00 0.00 0.00 0.00 0.00 0.00 0.00 0.00 0.00 0.00 0.00 0.00 0.00 0.00 0.00
0.03 0.02 0.02 0.01 0.00 0.01 0.02 0.01 0.01 0.04 0.02 0.00 0.00 0.00 0.00 0.00 0.00 0.00 0.00 0.00 0.00 0.00 0.00 0.00 0.00 0.00 0.00 0.00 0.00 0.00 0.00 0.00 0.00 0.00 0.00 0.00 0.00 0.00 0.00 0.00 0.00 0.00 0.00 0.00
0.03 0.03 0.01 0.00 0.00 0.00 0.01 0.00 0.01 0.03 0.04 0.00 0.00 0.00 0.00 0.00 0.00 0.00 0.00 0.00 0.00 0.00 0.00 0.00 0.00 0.00 0.00 0.00 0.00 0.00 0.00 0.00 0.00 0.00 0.00 0.00 0.00 0.00 0.00 0.00 0.00 0.00 0.00 0.00
0.03 0.03 0.02 0.00 0.00 0.01 0.02 0.00 0.00 0.00 0.00 0.00 0.00 0.00 0.00 0.00 0.00 0.00 0.00 0.00 0.00 0.00 0.00 0.00 0.00 0.00 0.00 0.00 0.00 0.00 0.00 0.00 0.00 0.00 0.00 0.00 0.00 0.00 0.00 0.00 0.00 0.00 0.00 0.00
0.03 0.04 0.02 0.00 0.00 0.04 0.01 0.00 0.00 0.00 0.00 0.00 0.00 0.00 0.00 0.00 0.00 0.00 0.00 0.00 0.00 0.00 0.00 0.00 0.00 0.00 0.00 0.00 0.00 0.00 0.00 0.00 0.00 0.00 0.00 0.00 0.00 0.00 0.00 0.00 0.00 0.00 0.00 0.00
0.02 0.03 0.02 0.00 0.01 0.04 0.00 0.00 0.00 0.00 0.00 0.00 0.00 0.00 0.00 0.00 0.00 0.00 0.00 0.00 0.00 0.00 0.00 0.00 0.00 0.00 0.00 0.00 0.00 0.00 0.00 0.00 0.00 0.00 0.00 0.00 0.00 0.00 0.00 0.00 0.00 0.00 0.00 0.00
0.03 0.03 0.02 0.00 0.01 0.01 0.00 0.00 0.00 0.00 0.01 0.02 0.00 0.00 0.00 0.00 0.00 0.00 0.00 0.00 0.00 0.00 0.00 0.00 0.00 0.00 0.00 0.00 0.00 0.00 0.00 0.00 0.00 0.00 0.00 0.00 0.00 0.00 0.00 0.00 0.00 0.00 0.00 0.00
0.03 0.02 0.01 0.00 0.00 0.01 0.00 0.00 0.01 0.00 0.01 0.01 0.00 0.00 0.00 0.00 0.01 0.00 0.00 0.00 0.00 0.00 0.00 0.00 0.00 0.00 0.00 0.00 0.00 0.00 0.00 0.00 0.00 0.00 0.00 0.00 0.00 0.00 0.00 0.00 0.00 0.00 0.00 0.00
0.02 0.01 0.01 0.00 0.00 0.02 0.01 0.00 0.01 0.02 0.01 0.01 0.01 0.00 0.00 0.00 0.01 0.01 0.00 0.00 0.00 0.00 0.00 0.00 0.00 0.00 0.00 0.00 0.00 0.00 0.00 0.00 0.00 0.00 0.00 0.00 0.00 0.00 0.00 0.00 0.00 0.00 0.00 0.00
0.01 0.00 0.00 0.00 0.01 0.02 0.01 0.00 0.01 0.02 0.01 0.03 0.06 0.03 0.00 0.00 0.01 0.00 0.00 0.00 0.00 0.00 0.00 0.00 0.00 0.00 0.00 0.00 0.01 0.00 0.00 0.00 0.00 0.00 0.00 0.00 0.00 0.00 0.00 0.00 0.00 0.00 0.00 0.00
0.00 0.00 0.00 0.00 0.01 0.03 0.01 0.00 0.00 0.02 0.02 0.03 0.07 0.07 0.02 0.00 0.02 0.01 0.00 0.00 0.00 0.00 0.00 0.00 0.00 0.00 0.00 0.00 0.00 0.00 0.00 0.00 0.00 0.00 0.00 0.00 0.00 0.00 0.00 0.00 0.00 0.00 0.00 0.00
0.00 0.00 0.01 0.01 0.02 0.02 0.01 0.00 0.00 0.00 0.02 0.03 0.03 0.06 0.04 0.00 0.00 0.00 0.00 0.00 0.00 0.00 0.00 0.00 0.00 0.00 0.00 0.00 0.00 0.00 0.00 0.00 0.00 0.00 0.00 0.00 0.00 0.00 0.00 0.00 0.00 0.00 0.00 0.00
0.00 0.01 0.01 0.02 0.03 0.02 0.01 0.00 0.00 0.00 0.01 0.00 0.01 0.04 0.09 0.04 0.00 0.00 0.00 0.00 0.00 0.00 0.00 0.00 0.00 0.00 0.00 0.00 0.00 0.00 0.00 0.00 0.00 0.00 0.00 0.00 0.00 0.00 0.00 0.00 0.00 0.00 0.00 0.00
0.01 0.01 0.02 0.02 0.03 0.01 0.00 0.00 0.00 0.00 0.00 0.00 0.00 0.02 0.04 0.05 0.01 0.00 0.00 0.00 0.00 0.00 0.00 0.00 0.00 0.00 0.00 0.00 0.00 0.00 0.00 0.00 0.00 0.00 0.00 0.00 0.00 0.00 0.00 0.00 0.00 0.00 0.00 0.00
0.01 0.01 0.02 0.02 0.02 0.00 0.00 0.00 0.00 0.00 0.01 0.00 0.00 0.01 0.02 0.04 0.05 0.02 0.00 0.00 0.00 0.01 0.00 0.00 0.00 0.00 0.00 0.00 0.00 0.00 0.00 0.00 0.00 0.00 0.00 0.00 0.00 0.00 0.00 0.00 0.00 0.00 0.00 0.00
0.01 0.01 0.01 0.01 0.00 0.00 0.00 0.00 0.00 0.00 0.00 0.00 0.01 0.00 0.01 0.03 0.03 0.04 0.02 0.00 0.00 0.00 0.01 0.00 0.00 0.00 0.00 0.00 0.00 0.00 0.00 0.00 0.00 0.00 0.00 0.00 0.00 0.00 0.00 0.00 0.00 0.00 0.00 0.00
0.00 0.00 0.00 0.00 0.00 0.00 0.00 0.00 0.00 0.00 0.00 0.00 0.00 0.00 0.01 0.01 0.02 0.07 0.03 0.02 0.02 0.01 0.01 0.00 0.00 0.00 0.00 0.00 0.00 0.00 0.00 0.00 0.00 0.00 0.00 0.00 0.00 0.00 0.00 0.00 0.00 0.00 0.00 0.00
0.00 0.00 0.00 0.00 0.00 0.00 0.00 0.00 0.00 0.00 0.00 0.01 0.00 0.00 0.02 0.04 0.06 0.05 0.05 0.04 0.03 0.02 0.02 0.00 0.00 0.00 0.00 0.00 0.00 0.00 0.00 0.00 0.00 0.00 0.00 0.00 0.00 0.00 0.00 0.00 0.00 0.00 0.00 0.00
0.01 0.01 0.01 0.01 0.00 0.00 0.00 0.00 0.00 0.00 0.02 0.01 0.00 0.01 0.03 0.03 0.05 0.04 0.03 0.03 0.02 0.01 0.00 0.00 0.00 0.00 0.00 0.00 0.00 0.00 0.00 0.00 0.00 0.00 0.00 0.00 0.00 0.00 0.00 0.00 0.00 0.00 0.00 0.00
0.00 0.01 0.00 0.00 0.00 0.00 0.02 0.03 0.02 0.02 0.02 0.01 0.00 0.01 0.02 0.01 0.02 0.03 0.03 0.02 0.01 0.00 0.00 0.01 0.00 0.00 0.00 0.00 0.00 0.00 0.00 0.00 0.00 0.00 0.00 0.00 0.00 0.00 0.00 0.00 0.00 0.00 0.00 0.00
0.01 0.00 0.01 0.00 0.01 0.02 0.02 0.01 0.00 0.01 0.00 0.00 0.00 0.00 0.01 0.00 0.00 0.00 0.01 0.01 0.00 0.00 0.00 0.00 0.00 0.00 0.00 0.00 0.00 0.00 0.00 0.00 0.00 0.00 0.00 0.00 0.00 0.00 0.00 0.00 0.00 0.00 0.00 0.00
0.02 0.03 0.03 0.03 0.02 0.00 0.00 0.01 0.01 0.00 0.00 0.00 0.00 0.00 0.00 0.00 0.00 0.00 0.00 0.00 0.00 0.00 0.00 0.00 0.00 0.00 0.00 0.00 0.00 0.00 0.00 0.00 0.00 0.00 0.00 0.00 0.00 0.00 0.00 0.00 0.00 0.00 0.00 0.00
0.01 0.03 0.01 0.01 0.00 0.00 0.00 0.00 0.00 0.00 0.00 0.00 0.00 0.00 0.00 0.00 0.00 0.00 0.00 0.00 0.00 0.00 0.00 0.00 0.00 0.00 0.00 0.00 0.00 0.00 0.00 0.00 0.00 0.00 0.00 0.00 0.00 0.00 0.00 0.00 0.00 0.00 0.00 0.00
0.01 0.01 0.01 0.00 0.00 0.00 0.00 0.00 0.00 0.00 0.00 0.00 0.00 0.00 0.00 0.00 0.00 0.00 0.00 0.00 0.00 0.00 0.00 0.00 0.00 0.00 0.00 0.00 0.00 0.00 0.00 0.00 0.00 0.00 0.00 0.00 0.00 0.00 0.00 0.00 0.00 0.00 0.00 0.00
0.00 0.00 0.00 0.00 0.00 0.00 0.00 0.00 0.00 0.00 0.00 0.00 0.00 0.00 0.00 0.00 0.00 0.00 0.00 0.00 0.00 0.00 0.00 0.00 0.00 0.00 0.00 0.00 0.00 0.00 0.00 0.00 0.00 0.00 0.00 0.00 0.00 0.00 0.00 0.00 0.00 0.00 0.00 0.00
0.00 0.00 0.00 0.00 0.00 0.00 0.00 0.00 0.00 0.00 0.00 0.00 0.00 0.00 0.00 0.00 0.00 0.00 0.00 0.00 0.00 0.00 0.00 0.00 0.00 0.00 0.00 0.00 0.00 0.00 0.00 0.00 0.00 0.00 0.00 0.00 0.00 0.00 0.00 0.00 0.00 0.00 0.00 0.00
0.00 0.00 0.00 0.00 0.00 0.00 0.00 0.00 0.00 0.00 0.00 0.00 0.00 0.00 0.00 0.00 0.00 0.00 0.00 0.00 0.00 0.00 0.00 0.00 0.00 0.00 0.00 0.00 0.00 0.00 0.00 0.00 0.00 0.00 0.00 0.00 0.00 0.00 0.00 0.00 0.00 0.00 0.00 0.00
MSLP
1002.67 1003.80 1005.12 1006.44 1007.93 1009.75 1011.13 1012.15 1011.68 1011.30 1012.77 1014.31 1012.16 1009.38 1007.68 1006.99 1006.40 1006.44 1006.37 1006.25 1005.73 1005.24 1004.68 1004.28 1003.84 1003.13 1003.04 1003.22 1003.69 1004.07 1004.58 1004.85 1005.23 1005.60 1006.11 1006.05 1005.64 1005.73 1006.25 1006.47 1006.88 1007.08 1006.43 1004.95
1000.78 1001.81 1003.28 1004.71 1006.19 1007.69 1009.44 1010.44 1010.76 1011.01 1011.30 1011.07 1010.41 1009.17 1008.09 1006.94 1006.29 1005.81 1006.12 1006.12 1005.86 1005.53 1004.75 1004.39 1003.96 1003.46 1003.22 1003.37 1003.32 1003.42 1004.39 1004.73 1004.92 1005.32 1006.28 1006.19 1005.55 1005.75 1005.84 1006.18 1006.54 1005.85 1005.49 1004.40
999.12 1000.27 1001.52 1002.88 1004.50 1006.17 1007.73 1009.00 1009.29 1009.93 1010.53 1008.59 1008.46 1008.57 1007.43 1006.80 1006.58 1006.04 1006.17 1005.95 1006.04 1005.81 1004.90 1004.46 1004.10 1003.89 1004.04 1003.92 1003.63 1003.74 1004.27 1004.07 1004.24 1004.14 1004.11 1004.37 1004.83 1005.10 1005.33 1005.55 1005.49 1005.12 1004.65 1004.16
997.35 998.60 999.82 1001.14 1002.86 1004.81 1006.16 1006.67 1005.79 1005.43 1006.20 1006.93 1006.84 1007.16 1006.35 1006.22 1005.85 1006.01 1005.95 1005.80 1005.89 1005.59 1005.13 1004.68 1004.60 1004.37 1004.42 1004.55 1004.66 1004.30 1004.21 1003.79 1004.24 1004.07 1003.96 1003.85 1004.00 1003.97 1004.38 1004.51 1004.56 1004.18 1003.88 1003.34
995.59 997.00 998.38 999.21 1001.34 1003.56 1004.86 1004.61 1002.85 1004.25 1004.20 1005.26 1005.01 1005.20 1005.36 1005.04 1005.28 1004.78 1004.80 1005.01 1005.66 1005.76 1005.42 1005.21 1005.21 1004.90 1004.54 1004.20 1004.91 1004.47 1004.56 1004.06 1004.28 1004.24 1004.19 1004.26 1003.85 1003.62 1003.61 1003.76 1003.75 1003.61 1003.37 1002.81
993.87 995.18 996.62 998.00 999.87 1002.26 1003.09 1004.00 1002.36 1002.41 1002.85 1004.22 1005.26 1004.20 1004.78 1004.54 1004.98 1004.79 1004.89 1005.22 1005.67 1005.77 1005.58 1005.92 1005.90 1005.76 1005.59 1005.31 1004.99 1004.63 1004.63 1004.47 1004.72 1004.47 1004.64 1004.53 1004.05 1003.31 1003.07 1003.22 1003.18 1002.98 1002.44 1002.44
992.36 993.97 995.63 996.78 998.62 1000.55 1001.17 1002.43 1001.87 1001.97 1001.91 1003.15 1003.54 1004.45 1004.58 1004.40 1004.41 1004.99 1005.06 1005.07 1005.51 1005.90 1006.25 1006.44 1006.15 1005.98 1005.68 1005.40 1005.10 1005.02 1004.84 1004.80 1004.99 1005.22 1005.51 1004.35 1002.89 1002.87 1002.40 1002.38 1002.11 1002.17 1002.18 1002.27
991.04 992.78 994.54 995.84 997.79 1000.22 1001.12 1001.78 1001.79 1001.38 1001.55 1002.02 1002.95 1003.93 1004.36 1004.39 1004.86 1005.13 1005.10 1005.41 1005.51 1006.21 1006.68 1006.86 1006.57 1005.89 1005.52 1005.06 1005.03 1005.13 1005.14 1005.18 1005.27 1005.29 1004.81 1003.53 1003.08 1002.97 1002.53 1002.01 1001.39 1001.36 1001.64 1001.90
990.15 992.01 993.89 995.43 997.42 1000.00 1001.07 1001.74 1001.98 1001.56 1001.54 1001.13 1002.16 1003.54 1003.99 1003.61 1003.73 1004.85 1005.01 1005.61 1005.98 1006.11 1006.79 1006.57 1005.70 1004.84 1004.68 1004.45 1005.22 1005.53 1005.64 1005.72 1005.20 1005.41 1004.12 1002.71 1001.87 1001.50 1001.71 1001.89 1000.61 1000.79 1001.49 1001.81
989.65 991.31 993.30 995.09 997.41 999.68 1000.67 1001.62 1002.06 1001.95 1001.81 1001.60 1002.19 1002.65 1003.25 1003.48 1003.50 1004.14 1004.88 1005.51 1005.96 1006.23 1006.55 1006.40 1005.77 1004.80 1004.27 1003.76 1004.03 1004.95 1005.43 1005.63 1005.10 1004.67 1003.57 1002.04 1001.48 1001.60 1001.96 1001.55 1000.27 1000.67 1001.17 1001.82
989.70 991.44 993.20 995.41 997.58 999.32 1000.33 1001.45 1002.15 1002.02 1002.14 1002.50 1003.28 1003.13 1002.87 1002.86 1003.00 1003.35 1003.75 1005.04 1005.44 1006.02 1006.23 1005.85 1005.49 1005.02 1004.10 1003.56 1003.14 1003.54 1003.84 1004.22 1004.38 1004.17 1003.19 1001.96 1001.75 1002.10 1001.05 999.88 1000.51 1000.71 1001.34 1002.01
990.17 991.92 993.99 996.14 998.07 999.56 1000.76 1001.97 1002.45 1002.75 1002.51 1003.60 1004.08 1004.53 1003.99 1003.00 1002.86 1003.10 1003.31 1002.60 1003.56 1004.53 1005.12 1005.48 1005.18 1004.87 1004.56 1003.50 1002.87 1003.20 1003.22 1002.88 1002.87 1002.74 1001.21 1000.86 1000.67 999.87 1000.09 1000.39 1000.38 1001.20 1001.56 1002.44
991.33 993.21 995.24 997.04 998.65 1000.04 1001.32 1002.01 1002.60 1003.01 1003.34 1003.99 1004.16 1004.39 1004.48 1004.36 1003.73 1002.75 1002.84 1002.92 1003.06 1003.62 1003.82 1004.60 1004.67 1004.24 1003.76 1003.32 1002.69 1002.13 1002.29 1002.53 1002.24 1002.24 1000.36 1000.74 1000.70 1000.53 1000.90 1001.01 1001.24 1001.73 1002.12 1002.99
993.05 994.84 996.41 997.91 999.38 1000.64 1000.85 1001.60 1002.74 1002.96 1004.15 1004.28 1003.85 1003.94 1004.82 1004.10 1003.81 1003.53 1003.40 1002.98 1003.41 1003.58 1004.12 1004.20 1004.54 1004.22 1003.39 1002.80 1002.24 1001.47 1000.96 1001.64 1001.22 1000.52 1000.24 1000.89 1000.75 1000.59 1000.50 1001.41 1002.10 1002.42 1002.71 1003.44
994.87 996.12 997.44 998.65 1000.08 1000.95 1001.42 1002.63 1003.24 1003.73 1004.23 1004.65 1003.89 1003.56 1003.77 1004.13 1003.70 1003.40 1003.53 1003.37 1003.11 1003.44 1003.88 1004.28 1004.03 1003.40 1003.51 1003.16 1002.70 1001.02 1000.79 1000.12 1000.22 999.31 999.30 999.64 999.42 999.88 1000.17 1001.08 1001.78 1002.42 1003.07 1004.01
996.38 997.24 998.46 999.77 1000.93 1001.36 1002.01 1003.72 1004.53 1004.62 1004.45 1004.87 1004.50 1003.74 1003.11 1003.50 1003.73 1003.39 1003.12 1003.28 1003.48 1003.49 1003.17 1003.58 1003.21 1003.08 1003.11 1002.22 1001.02 1000.08 999.68 999.76 999.55 999.22 999.85 1000.04 1000.91 1001.12 1001.02 1001.40 1002.09 1002.75 1003.40 1004.24
997.82 998.72 999.51 1000.40 1001.48 1002.19 1002.93 1003.43 1003.52 1004.41 1004.79 1004.86 1005.01 1004.33 1003.03 1003.21 1003.36 1003.18 1003.13 1003.11 1003.27 1003.55 1003.56 1003.20 1003.08 1003.10 1003.28 1002.08 1000.48 999.69 999.35 999.48 999.62 1000.26 1000.91 1001.01 1001.38 1001.11 1002.07 1002.58 1003.15 1003.89 1004.30 1005.20
999.03 999.95 1000.66 1001.51 1002.14 1002.56 1002.93 1003.74 1004.05 1004.04 1004.78 1005.30 1005.40 1004.28 1003.76 1002.94 1002.51 1002.71 1002.73 1003.05 1003.63 1003.74 1003.41 1003.40 1002.90 1002.96 1003.00 1001.00 999.99 999.56 999.56 999.78 1000.29 1000.62 1001.11 1001.59 1002.10 1002.56 1003.08 1003.60 1004.24 1004.99 1005.53 1006.30
1000.42 1001.26 1001.93 1002.57 1003.09 1003.66 1004.00 1004.40 1004.81 1004.92 1005.18 1004.84 1004.84 1004.04 1003.02 1002.65 1002.41 1002.65 1003.44 1003.39 1004.00 1004.09 1003.71 1003.32 1003.05 1002.43 1001.32 1000.12 999.91 999.74 999.80 999.98 999.99 1000.89 1001.82 1002.43 1002.74 1003.19 1003.89 1004.31 1004.95 1005.60 1006.84 1007.63
1001.32 1001.77 1002.32 1003.12 1003.64 1004.28 1004.14 1005.14 1005.46 1005.82 1005.00 1004.83 1004.16 1003.46 1002.73 1001.88 1000.98 1002.19 1002.72 1003.29 1003.60 1004.01 1003.61 1003.35 1002.93 1001.26 1000.78 1000.40 1000.51 1000.22 1000.13 1000.30 1001.37 1001.85 1002.35 1002.79 1003.25 1003.98 1004.84 1005.49 1006.14 1007.03 1007.90 1008.92
1001.76 1002.19 1002.35 1003.26 1003.75 1004.21 1004.06 1004.78 1005.00 1004.46 1004.07 1003.58 1003.28 1003.14 1002.08 1001.12 1000.63 1001.46 1002.52 1003.26 1003.66 1003.64 1003.21 1002.71 1002.47 1002.29 1002.00 1002.65 1001.77 1001.78 1001.81 1002.12 1002.42 1002.63 1003.04 1003.45 1003.79 1004.51 1005.54 1006.75 1007.62 1008.68 1009.31 1010.07
1002.45 1002.12 1002.40 1003.56 1004.21 1004.15 1004.22 1004.26 1004.09 1003.35 1002.15 1002.45 1002.07 1001.55 1001.36 1001.35 1001.30 1001.27 1002.84 1003.04 1003.46 1003.35 1003.36 1003.53 1003.59 1004.16 1004.46 1004.09 1003.70 1003.58 1003.65 1003.86 1004.15 1004.23 1004.53 1004.98 1005.61 1006.40 1007.28 1008.06 1009.07 1010.48 1011.57 1012.61
1002.43 1002.40 1002.90 1003.12 1004.13 1004.26 1003.66 1003.31 1002.86 1002.46 1001.89 1002.58 1002.72 1002.86 1002.62 1002.58 1002.27 1002.79 1003.04 1003.38 1003.77 1003.83 1004.03 1004.44 1005.57 1005.86 1005.62 1005.55 1005.47 1005.47 1005.61 1005.78 1006.20 1006.65 1007.04 1007.59 1007.92 1008.96 1009.86 1010.78 1011.53 1012.09 1013.11 1014.09
1003.24 1003.44 1003.94 1004.35 1004.32 1004.26 1003.72 1003.25 1002.75 1003.20 1002.84 1002.85 1003.14 1003.51 1003.46 1003.65 1003.48 1003.49 1003.52 1004.08 1004.25 1004.51 1004.95 1006.06 1006.91 1007.15 1007.27 1007.42 1007.48 1007.32 1007.51 1007.60 1008.09 1008.65 1009.26 1009.75 1010.42 1010.89 1011.62 1012.33 1013.10 1013.47 1014.51 1015.63
1005.04 1005.20 1005.58 1005.67 1005.89 1005.65 1005.12 1004.37 1004.05 1004.19 1003.76 1003.65 1003.74 1003.77 1003.71 1004.01 1003.99 1004.23 1004.42 1004.75 1005.42 1006.32 1007.30 1008.06 1008.54 1008.69 1008.81 1009.05 1009.19 1009.24 1009.42 1009.76 1010.16 1010.72 1011.19 1011.77 1012.39 1012.66 1013.47 1014.31 1014.85 1015.37 1016.25 1017.05
1007.16 1008.23 1008.01 1007.65 1007.04 1006.73 1006.09 1005.77 1005.48 1005.40 1004.98 1004.67 1004.51 1004.60 1004.73 1005.13 1005.22 1005.71 1006.42 1006.69 1008.07 1009.01 1009.45 1009.78 1009.86 1010.07 1010.28 1010.45 1010.58 1010.79 1011.13 1011.66 1011.99 1012.36 1012.98 1013.66 1014.07 1014.59 1015.42 1016.22 1016.84 1017.38 1017.96 1018.68
1008.55 1009.41 1009.85 1009.42 1009.08 1008.73 1008.19 1007.55 1006.95 1006.37 1005.73 1005.64 1005.84 1006.29 1007.05 1007.06 1007.61 1008.76 1009.65 1010.39 1010.94 1010.94 1011.13 1011.27 1011.29 1011.36 1011.59 1011.80 1011.94 1012.28 1012.64 1012.96 1013.51 1014.08 1014.78 1015.29 1015.86 1016.22 1016.86 1017.62 1018.65 1019.05 1019.61 1020.12
Thickness
5431 5429 5428 5426 5422 5414 5410 5407 5413 5440 5429 5416 5454 5506 5547 5557 5563 5573 5577 5582 5591 5600 5611 5613 5622 5632 5646 5654 5651 5637 5647 5639 5624 5631 5637 5642 5647 5642 5639 5624 5621 5624 5623 5636
5418 5418 5418 5420 5418 5413 5408 5406 5411 5417 5427 5424 5451 5507 5523 5541 5552 5567 5570 5573 5582 5594 5602 5603 5617 5630 5645 5645 5647 5642 5641 5629 5615 5618 5621 5629 5633 5637 5641 5638 5630 5629 5620 5637
5400 5405 5408 5412 5414 5409 5407 5402 5405 5406 5412 5470 5478 5483 5509 5525 5538 5555 5562 5569 5573 5578 5592 5604 5609 5617 5624 5633 5642 5635 5637 5636 5628 5621 5633 5642 5628 5633 5637 5634 5619 5630 5633 5640
5393 5394 5400 5407 5410 5403 5401 5402 5426 5444 5438 5449 5477 5488 5514 5516 5524 5545 5555 5561 5565 5573 5578 5590 5596 5610 5614 5617 5613 5628 5631 5623 5631 5639 5642 5643 5640 5641 5637 5631 5636 5630 5640 5644
5391 5393 5394 5404 5406 5397 5395 5408 5452 5452 5463 5466 5487 5489 5493 5515 5525 5546 5553 5560 5563 5567 5570 5579 5583 5599 5610 5616 5612 5619 5621 5620 5629 5624 5635 5631 5630 5639 5639 5638 5639 5637 5641 5644
5393 5395 5400 5403 5403 5392 5395 5405 5447 5462 5468 5458 5449 5484 5494 5512 5519 5537 5546 5553 5552 5555 5567 5571 5581 5587 5594 5601 5606 5611 5612 5616 5613 5613 5621 5618 5603 5627 5636 5635 5638 5638 5632 5647
5393 5394 5395 5402 5402 5398 5418 5418 5441 5452 5462 5450 5458 5474 5488 5502 5512 5520 5529 5543 5543 5554 5561 5563 5571 5579 5585 5593 5600 5607 5604 5612 5613 5606 5588 5586 5638 5643 5648 5639 5645 5646 5644 5648
5392 5394 5396 5402 5402 5397 5406 5416 5431 5451 5452 5470 5463 5461 5475 5490 5495 5507 5519 5531 5544 5547 5548 5543 5549 5563 5572 5584 5593 5596 5605 5604 5594 5590 5601 5625 5627 5629 5631 5630 5638 5651 5645 5649
5393 5394 5395 5401 5402 5394 5400 5409 5423 5444 5456 5471 5469 5453 5467 5483 5492 5499 5514 5524 5530 5539 5533 5540 5548 5561 5575 5581 5579 5584 5590 5594 5602 5585 5599 5596 5636 5649 5648 5640 5629 5652 5645 5645
5396 5400 5400 5402 5398 5393 5399 5406 5418 5433 5447 5460 5458 5455 5457 5480 5485 5497 5504 5511 5518 5530 5525 5528 5542 5558 5579 5578 5579 5567 5576 5577 5584 5592 5597 5623 5641 5638 5636 5613 5636 5648 5647 5644
5399 5402 5403 5398 5395 5394 5400 5406 5413 5429 5440 5445 5439 5449 5457 5471 5477 5490 5506 5505 5513 5519 5520 5530 5540 5545 5568 5576 5591 5583 5588 5586 5580 5592 5586 5594 5631 5623 5627 5649 5643 5645 5638 5637
5402 5401 5397 5392 5391 5391 5395 5398 5407 5417 5431 5424 5422 5425 5441 5464 5479 5489 5502 5530 5527 5527 5526 5530 5542 5541 5547 5573 5572 5589 5583 5599 5604 5604 5619 5633 5635 5648 5647 5644 5644 5632 5633 5628
5400 5394 5390 5388 5387 5388 5391 5398 5406 5411 5418 5417 5422 5424 5432 5442 5459 5487 5498 5514 5526 5528 5538 5534 5540 5540 5560 5554 5569 5587 5589 5592 5590 5597 5629 5625 5626 5634 5628 5629 5627 5625 5623 5616
5392 5388 5386 5385 5385 5385 5397 5403 5403 5409 5404 5407 5423 5430 5427 5443 5453 5471 5494 5510 5515 5523 5525 5529 5522 5534 5558 5563 5576 5583 5599 5590 5596 5605 5618 5612 5619 5623 5628 5617 5612 5612 5612 5607
5385 5384 5384 5384 5382 5386 5393 5392 5395 5398 5402 5399 5421 5431 5437 5441 5453 5471 5487 5501 5513 5517 5518 5504 5521 5544 5546 5551 5555 5573 5588 5597 5590 5603 5625 5621 5633 5627 5627 5616 5611 5607 5602 5593
5380 5383 5381 5379 5380 5386 5389 5379 5382 5387 5393 5397 5404 5427 5442 5446 5448 5466 5487 5498 5505 5513 5523 5520 5536 5544 5544 5546 5564 5587 5598 5599 5606 5609 5612 5614 5602 5603 5610 5607 5603 5598 5592 5585
5376 5377 5379 5379 5378 5380 5384 5390 5395 5388 5390 5398 5404 5415 5441 5447 5455 5469 5482 5497 5505 5510 5515 5522 5531 5536 5532 5537 5555 5585 5593 5596 5599 5593 5589 5593 5591 5601 5590 5587 5584 5576 5575 5567
5372 5371 5372 5372 5374 5378 5384 5382 5383 5388 5390 5391 5398 5418 5428 5452 5467 5475 5490 5498 5497 5501 5513 5516 5527 5533 5528 5537 5567 5581 5585 5586 5579 5580 5580 5579 5577 5575 5571 5568 5561 5556 5551 5545
5365 5364 5365 5366 5368 5370 5375 5374 5376 5380 5388 5392 5395 5420 5445 5451 5466 5474 5473 5483 5485 5491 5496 5516 5521 5529 5533 5556 5567 5571 5573 5573 5580 5570 5563 5560 5561 5560 5553 5550 5546 5542 5528 5521
5363 5366 5366 5360 5366 5366 5372 5365 5368 5369 5389 5394 5406 5431 5443 5463 5472 5470 5481 5485 5497 5497 5500 5509 5506 5542 5553 5555 5554 5560 5563 5563 5553 5550 5547 5546 5545 5540 5533 5530 5528 5519 5510 5501
5363 5363 5370 5364 5364 5368 5377 5372 5376 5392 5398 5411 5420 5424 5455 5472 5491 5482 5480 5478 5480 5506 5508 5519 5524 5529 5534 5519 5537 5538 5540 5538 5539 5541 5538 5537 5536 5529 5519 5507 5502 5493 5488 5481
5365 5372 5377 5371 5372 5379 5380 5385 5391 5406 5425 5424 5433 5440 5462 5466 5481 5497 5477 5485 5483 5518 5493 5498 5518 5499 5492 5500 5509 5512 5514 5515 5514 5516 5515 5513 5509 5501 5494 5484 5476 5464 5452 5441
5374 5381 5378 5383 5376 5382 5397 5398 5416 5419 5421 5425 5431 5441 5453 5459 5474 5466 5474 5486 5488 5478 5494 5504 5478 5474 5479 5483 5485 5484 5485 5484 5481 5478 5477 5474 5471 5463 5456 5445 5437 5435 5426 5419
5372 5377 5383 5384 5392 5394 5400 5412 5425 5410 5424 5434 5436 5437 5452 5447 5461 5465 5487 5475 5475 5491 5505 5479 5463 5458 5459 5459 5460 5462 5459 5459 5456 5451 5446 5443 5437 5433 5427 5421 5415 5412 5405 5395
5366 5368 5376 5381 5376 5379 5383 5395 5407 5407 5417 5429 5436 5440 5455 5448 5461 5463 5470 5481 5477 5468 5459 5446 5439 5439 5439 5438 5438 5437 5436 5431 5429 5426 5422 5418 5414 5411 5403 5396 5391 5387 5379 5371
5355 5345 5357 5365 5376 5379 5385 5391 5401 5405 5413 5423 5433 5441 5455 5452 5458 5456 5450 5465 5442 5431 5424 5421 5423 5420 5419 5419 5418 5416 5414 5409 5408 5406 5401 5394 5390 5385 5378 5371 5365 5359 5354 5346
5358 5352 5346 5353 5362 5369 5378 5386 5394 5402 5418 5432 5433 5435 5429 5437 5435 5425 5416 5411 5406 5405 5404 5403 5404 5405 5403 5401 5399 5396 5393 5391 5387 5382 5375 5371 5367 5364 5359 5351 5340 5335 5327 5320